Burlington, VT

6:19 AM EDT on June 20, 2018 (GMT -0400)
Burlington International

Weather History for KBTV - March, 2015

Change the Weather History Date:

Tuesday, March 17, 2015

  Actual Average Record
Temperature  
Mean Temperature 31 °F 31 °F  
Max Temperature 40 °F 40 °F 69 °F (1990)
Min Temperature 22 °F 22 °F -8 °F (2014)
Degree Days  
Heating Degree Days 34 34  
Month to date heating degree days 660 627  
Since 1 July heating degree days 6177 6037  
Cooling Degree Days 0 0  
Month to date cooling degree days 0 0  
Year to date cooling degree days 0 0  
Moisture  
Dew Point 22 °F    
Average Humidity 64    
Maximum Humidity 92    
Minimum Humidity 36    
Precipitation  
Precipitation 0.07 in 0.07 in 0.93 in (1973)
Month to date precipitation 0.47 1.16  
Year to date precipitation 2.85 4.98  
Snow  
Snow 0.10 in 0.50 in 10.30 in (2007)
Month to date snowfall 4.4 10.2  
Since 1 July snowfall 80.3 71.0  
Snow Depth 1.00 in    
Sea Level Pressure  
Sea Level Pressure 29.65 in    
Wind  
Wind Speed 14 mph (West)    
Max Wind Speed 36 mph    
Max Gust Speed 46 mph    
Visibility 8 miles    
Events Rain , Snow    
T = Trace of Precipitation, MM = Missing Value Source: NWS Daily Summary

Daily Weather History Graph

Daily Weather History Graph

Search for Another Location

Airport or City:

Astronomy

Mar. 17, 2015 Rise Set
Actual Time 7:01 AM EDT 7:00 PM EDT
Civil Twilight 6:32 AM EDT 7:29 PM EDT
Nautical Twilight 5:58 AM EDT 8:03 PM EDT
Astronomical Twilight 5:24 AM EDT 8:38 PM EDT
Moon 5:05 AM EDT (3/17) 3:55 PM EDT (3/17)
Length of Visible Light 12h 57m
Length of Day
11h 59m
Waning Crescent, 11% of the Moon is Illuminated
Mar 17
Waning Crescent
Mar 20
New
Mar 27
First Quarter
Apr 4
Full
Apr 11
Last Quarter

Hourly Weather History & Observations

Time (EDT) Temp. Windchill Dew Point Humidity Pressure Visibility Wind Dir Wind Speed Gust Speed Precip Events Conditions
12:54 AM 39.9 °F 34.5 °F 21.0 °F 47% 29.68 in 10.0 mi SSW 8.1 mph - N/A   Overcast
1:54 AM 39.9 °F 35.1 °F 23.0 °F 51% 29.66 in 10.0 mi SW 6.9 mph - N/A   Overcast
2:54 AM 39.9 °F 33.9 °F 23.0 °F 51% 29.63 in 10.0 mi SSW 9.2 mph - N/A   Overcast
3:54 AM 39.0 °F 35.7 °F 26.1 °F 60% 29.58 in 10.0 mi South 4.6 mph - 0.00 in Rain Light Rain
4:46 AM 37.0 °F 34.5 °F 28.9 °F 73% 29.56 in 10.0 mi SSW 3.5 mph - 0.01 in Rain Light Rain
4:54 AM 37.0 °F 34.5 °F 28.9 °F 73% 29.57 in 10.0 mi SSW 3.5 mph - 0.01 in Rain Light Rain
5:35 AM 36.0 °F 31.1 °F 30.0 °F 79% 29.55 in 10.0 mi South 5.8 mph - 0.01 in Rain Light Rain
5:54 AM 35.1 °F 31.0 °F 30.9 °F 85% 29.55 in 8.0 mi South 4.6 mph - 0.02 in Rain Light Rain
6:01 AM 35.1 °F 32.2 °F 30.9 °F 85% 29.53 in 9.0 mi South 3.5 mph - 0.01 in Rain Light Rain
6:27 AM 35.1 °F 32.2 °F 30.9 °F 85% 29.52 in 10.0 mi South 3.5 mph - 0.02 in Rain Light Rain
6:54 AM 36.0 °F - 32.0 °F 86% 29.54 in 10.0 mi Calm Calm - 0.03 in   Overcast
7:11 AM 36.0 °F 33.3 °F 32.0 °F 86% 29.52 in 8.0 mi SSW 3.5 mph - 0.00 in Rain Light Rain
7:54 AM 36.0 °F 32.1 °F 33.1 °F 89% 29.54 in 6.0 mi SSW 4.6 mph - 0.00 in Rain Light Rain
8:54 AM 37.0 °F 34.5 °F 33.1 °F 86% 29.51 in 6.0 mi South 3.5 mph - 0.01 in   Overcast
9:54 AM 37.0 °F 32.4 °F 34.0 °F 89% 29.50 in 5.0 mi WSW 5.8 mph - N/A   Overcast
10:54 AM 37.0 °F 33.3 °F 34.0 °F 89% 29.49 in 5.0 mi WSW 4.6 mph - 0.00 in   Overcast
11:54 AM 39.0 °F 34.0 °F 34.0 °F 82% 29.49 in 9.0 mi SW 6.9 mph - N/A   Overcast
12:54 PM 37.0 °F 28.5 °F 28.9 °F 73% 29.55 in 10.0 mi NNW 13.8 mph 21.9 mph 0.00 in   Overcast
1:30 PM 33.1 °F 19.3 °F 23.0 °F 66% 29.59 in 9.0 mi NNW 28.8 mph 39.1 mph 0.00 in   Overcast
1:54 PM 30.9 °F 17.5 °F 19.0 °F 61% 29.65 in 10.0 mi NNW 24.2 mph 43.7 mph 0.00 in   Overcast
2:31 PM 28.9 °F 15.1 °F 21.0 °F 72% 29.66 in 2.5 mi NNW 23.0 mph 29.9 mph 0.00 in Snow Light Snow
2:40 PM 28.9 °F 16.5 °F 21.0 °F 72% 29.66 in 9.0 mi NW 18.4 mph 32.2 mph 0.00 in   Overcast
2:54 PM 30.0 °F 16.3 °F 19.0 °F 64% 29.68 in 9.0 mi NW 24.2 mph 34.5 mph 0.00 in   Overcast
3:54 PM 30.0 °F 15.2 °F 14.0 °F 51% 29.72 in 10.0 mi NNW 28.8 mph 41.4 mph N/A   Mostly Cloudy
4:54 PM 32.0 °F 18.4 °F 10.9 °F 42% 29.73 in 10.0 mi NW 26.5 mph 35.7 mph N/A   Mostly Cloudy
5:54 PM 30.9 °F 16.2 °F 7.0 °F 37% 29.75 in 10.0 mi NW 29.9 mph 40.3 mph N/A   Mostly Cloudy
6:54 PM 30.0 °F 17.2 °F 6.1 °F 36% 29.79 in 10.0 mi NNW 20.7 mph 35.7 mph N/A   Mostly Cloudy
7:54 PM 28.9 °F 16.5 °F 6.1 °F 38% 29.82 in 10.0 mi NNW 18.4 mph 29.9 mph N/A   Overcast
8:54 PM 27.0 °F 13.9 °F 7.0 °F 43% 29.84 in 10.0 mi NNW 18.4 mph 27.6 mph N/A   Partly Cloudy
9:54 PM 27.0 °F 16.1 °F 9.0 °F 47% 29.85 in 10.0 mi NNW 12.7 mph - N/A   Overcast
10:54 PM 25.0 °F 10.6 °F 12.9 °F 60% 29.87 in 6.0 mi NW 20.7 mph 29.9 mph 0.00 in Snow Light Snow
11:32 PM 23.0 °F 8.0 °F 17.1 °F 78% 29.86 in 1.8 mi NW 20.7 mph 27.6 mph 0.00 in Snow Light Snow
11:49 PM 23.0 °F 8.3 °F 17.6 °F 80% 29.86 in 3.0 mi NW 19.6 mph - 0.00 in Snow Light Snow
11:54 PM 23.0 °F 9.2 °F 16.0 °F 74% 29.88 in 7.0 mi NNW 17.3 mph 27.6 mph 0.00 in Snow Light Snow